Regional Weather Roundup
Issued by NWS

Home | Current Version | Previous Version | Graphics & Text | Print | Product List | Glossary On
Versions: 1 2 3 4 5 6 7 8 9 10 11 12 13 14 15 16 17 18 19 20 21 22 23 24 25 26 27 28 29 30 31 32 33 34 35 36 37 38 39 40 41 42 43 44 45 46 47 48 49 50
000
ASUS43 KLSX 281957
RWRMO

WEATHER SUMMARY FOR MISSOURI
NATIONAL WEATHER SERVICE SPRINGFIELD MO
300 PM CDT WED SEP 28 2016

NOTE: "FAIR" INDICATES FEW OR NO CLOUDS BELOW 12,000 FEET WITH NO
       SIGNIFICANT WEATHER AND/OR OBSTRUCTIONS TO VISIBILITY.
       CURRENT SKY AND/OR WEATHER CONDITIONS ARE NOT AVAILABLE FOR
       CHILLICOTHE AND FARMINGTON.

MOZ001>031-035>038-043-044-053-054-282100-
...NORTHERN AND WESTERN MISSOURI...

CITY           SKY/WX    TMP DP  RH WIND       PRES   REMARKS
KANSAS CTY INT MOSUNNY   66  47  50 N13G23    30.13R
LEE`S SUMMIT   SUNNY     66  48  52 N16       30.12R
ST JOSEPH      SUNNY     67  46  47 N14G23    30.15R
CHILLICOTHE      N/A     66  48  52 VRB6      30.13R

$$
MOZ066>068-077>081-088>096-101>105-282100-
...SOUTHWEST MISSOURI...

CITY           SKY/WX    TMP DP  RH WIND       PRES   REMARKS
SPRINGFIELD    SUNNY     73  44  35 N16G25    30.03R
JOPLIN         SUNNY     73  47  39 N16G22    30.06R
BRANSON        SUNNY     77  37  24 N17G23    30.02R

$$
MOZ032>034-039>042-045>050-055>058-069>072-282100-
...CENTRAL MISSOURI...

CITY           SKY/WX    TMP DP  RH WIND       PRES   REMARKS
COLUMBIA       NOT AVBL
JEFFERSON CITY SUNNY     68  45  43 N10G18    30.05R
ROLLA          SUNNY     67  46  47 NW17G23   30.03R
SEDALIA        SUNNY     70  46  42 N13G21    30.09R

$$
MOZ051-052-059>065-282100-
...EAST CENTRAL MISSOURI...

CITY           SKY/WX    TMP DP  RH WIND       PRES   REMARKS
ST LOUIS INTL  MOSUNNY   68  44  42 N18G28    30.01R

$$
MOZ072>076-082>087-097>100-106>115-282100-
...SOUTH CENTRAL AND SOUTHEAST MISSOURI...

CITY           SKY/WX    TMP DP  RH WIND       PRES   REMARKS
CAPE GIRARDEAU SUNNY     73  46  38 N17G26    29.94R
POPLAR BLUFF   SUNNY     79  45  29 NW13      29.92R
WEST PLAINS    SUNNY     75  44  33 N14G21    30.01R

$$



USA.gov is the U.S. government's official web portal to all federal, state and local government web resources and services.